Other Surface Observations
Issued by NWS Tucson, AZ

Home | Current Version | Previous Version | Text Only | Print | Product List | Glossary On
Versions: 1 2 3 4 5 6 7 8 9 10 11 12 13 14 15 16 17 18 19 20 21 22 23 24 25 26 27 28 29 30 31 32 33 34 35 36 37 38 39 40 41 42 43 44 45 46 47 48 49 50
458
SXUS55 KTWC 120515
OSOTWC

WEATHER ROUNDUP FOR SOUTHEAST ARIZONA
NATIONAL WEATHER SERVICE TUCSON AZ
1015 PM MST THU FEB 11 2016

AZZ504>506-514-120615-
LOCATION       SKY/WX    TMP DP  RH WIND       PRES   REMARKS
TUCSON         CLEAR     57  26  30 SE7       30.20R
DAVIS-MONTHAN  CLEAR     56  28  34 SE7       30.18R
CHILDRENS PARK N/A      N/A N/A  26 N2                PIMA CO DEQ
ALVERNON/22ND  N/A       67 N/A N/A NW1               PIMA CO DEQ
CHERRY/GLENN   N/A       64 N/A N/A NW2               PIMA CO DEQ
TANGERINE      N/A       64 N/A N/A NE7               PIMA CO DEQ
CONTL RANCH    N/A       62  33  33 NE2               PIMA CO DEQ
GRANT/1ST      N/A       66  29  25 N3                PIMA CO DEQ
CRAYCROFT/22ND N/A       64  28  26 N/A               PIMA CO DEQ
GOLFLINKS/KOLB N/A       66  29  25 SW2               PIMA CO DEQ
AJO/12TH       N/A       66  27  23 S8                PIMA CO DEQ
SAGUARO EAST   N/A       20 -12  22 SW4               PIMA CO DEQ
FAIRGROUNDS    N/A       57 N/A N/A S7                PIMA CO DEQ
SAGUARO        N/A       62  22  21 CALM              *SABINO CYN
SAN CARLOS     N/A       58  28  32 NW5               *SAN CARLOS
GREEN VALLEY   N/A       61  20  20 SW2               PIMA CO DEQ
HORSE CAMP CYN N/A       64  18  17 CALM              *ARAVAIPA CYN
RINCON MTNS    N/A       45  -6  11 CALM              *NR MANNING CAMP
$$

AZZ509>511-120615-
LOCATION       SKY/WX    TMP DP  RH WIND       PRES   REMARKS
SAFFORD        CLEAR     49  22  34 NE3       30.20R
STRAY HORSE    N/A       47  12  24 N5                *
TRAIL CABIN    N/A       50  11  20 SW3               *N OF GRANVILLE
BLACK HILLS    N/A       52  22  31 CALM              *N OF FT THOMAS
DRY LAKE       N/A       49   9  19 N6                *NATANES MTNS
NOON CREEK     N/A       55  15  20 SW10G14           *PINALENO MTNS
COLUMBINE      N/A       27   8  44 CALM              *PINALENO MTNS
GUTHRIE        N/A       58   9  14 W14G18            *SW OF GUTHRIE
$$

AZZ502-503-513-120615-
LOCATION       SKY/WX    TMP DP  RH WIND       PRES   REMARKS
NOGALES        CLEAR     51  17  26 NE3       30.23S
SELLS          N/A       67  22  18 E7G10             *
SASABE         N/A       48  24  39 W4                *ALTAR VLY
HOPKINS        N/A       58  11  15 NE4               *SANTA RITA MTNS
CARR CYN       N/A       54  13  19 SW4               *W OF HEREFORD
$$

AZZ507-508-512-120615-
LOCATION       SKY/WX    TMP DP  RH WIND       PRES   REMARKS
SIERRA VISTA   CLEAR     50  17  26 S8        30.28S
DOUGLAS        CLEAR     46   9  22 N8        30.25R
EMPIRE MTNS    N/A       41  19  40 W5                *LAS CIENEGAS NCA
MULESHOE RANCH N/A       52  16  24 CALM              *PRESERVE
HEADQUARTERS   N/A       50  17  27 E4                *CHIRICAHUA MTNS
$$

.............................NOTES.............................
THIS IS AN AUTOMATED COLLECTIVE WITH MINIMAL QUALITY CONTROL.
PIMA CO DEQ SITES HAVE NONSTANDARD WIND SENSOR HEIGHTS.
PIMA CO DEQ SITES DO NOT REPORT WIND GUSTS.
* INDICATES WIND SENSORS LOCATED AT 20 FEET INSTEAD OF 33 FEET.
..............................KEY..............................
SKY/WX - SKY CONDITION/WEATHER
TMP    - TEMPERATURE IN FAHRENHEIT
DP     - DEWPOINT IN FAHRENHEIT
RH     - RELATIVE HUMIDITY IN PERCENT
WIND   - DIRECTION AND SPEED IN MILES PER HOUR (MPH)
VRB    - VARIABLE WIND DIRECTION
PRES   - MEAN SEA LEVEL PRESSURE IN INCHES OF MERCURY
         F - FALLING PRESSURE   R - RISING PRESSURE
         S - STEADY PRESSURE
VSB    - VISIBILITY IN MILES
HX     - HEAT INDEX IN FAHRENHEIT
WCI    - WIND CHILL INDEX IN FAHRENHEIT
N/A    - NOT AVAILABLE
AFB    - AIR FORCE BASE
         DAVIS-MONTHAN IS DAVIS-MONTHAN AIR FORCE BASE
CYN    - CANYON
MTNS   - MOUNTAINS
NCA    - NATIONAL CONSERVATION AREA
NR     - NEAR
VLY    - VALLEY
CONTL  - CONTINENTAL
PIMA CO DEQ - PIMA COUNTY DEPT OF ENVIRONMENTAL QUALITY



USA.gov is the U.S. government's official web portal to all federal, state and local government web resources and services.